Home > Time Zones > World Clock > Weather > India > Gonda > Past weeks

Flag for India Weather past 2 weeks in Gonda, Uttar Pradesh, India

Now
75 °F

Haze.


Feels Like: 76 °F
Forecast: 76 / 97 °F
Wind: 7 mph from Southeast

Location: Lucknow / Amausi

Current Time: Apr 28, 2015 at 3:02:14 AM

Latest Report: Apr 28, 2015 at 2:00 AM


Visibility: 3 mi

Pressure: 29.68 "Hg

Humidity: 78%

Dew point: 68 °F

Location of GondaLocation

Historic Weather in Gonda — Graph

°F

Gonda temperature yesterday

Maximum temperature yesterday: 95 °F (at 1:30 PM)
Minimum temperature yesterday: 75 °F (at 5:30 AM)
Average temperature yesterday: 86 °F

Past Weeks' High & Low Weather Summary

 TemperatureHumidityPressure
High108 °F (Apr 21, 2:30 PM)94% (Apr 13, 2:00 AM)30.01 "Hg (Apr 13, 2:00 AM)
Low68 °F (Apr 13, 2:00 AM)13% (Apr 22, 2:00 PM)29.53 "Hg (Apr 18, 3:00 PM)
Average86 °F54%29.76 "Hg
* Reported Apr 13 2:00 AM — Apr 28 1:00 AM, Gonda, Weather by CustomWeather, © 2015

Note: Actual official high and low records may vary slightly from our data, if they occured in-between our weather recording intervals... More about our weather records

Advertising

Gonda weather history for previous 24 hours

 ConditionsComfort  
Time TempWeatherWind HumidityBarometerVisibility
1:00 AM
Tue, Apr 28
82 °FHaze.8 mph66%29.71 "Hg3 mi
12:00 AM82 °FHaze.5 mph62%29.74 "Hg3 mi
11:00 PM
Mon, Apr 27
84 °FHaze.7 mph58%29.74 "Hg3 mi
10:00 PM86 °FHaze.5 mph55%29.77 "Hg3 mi
9:00 PM86 °FHaze.5 mph55%29.77 "Hg3 mi
8:30 PM86 °FHaze.3 mph55%29.77 "Hg3 mi
8:00 PM88 °FHaze.2 mph52%29.74 "Hg3 mi
7:30 PM90 °FHaze.2 mph49%29.74 "Hg3 mi
7:00 PM90 °FHaze.3 mph49%29.74 "Hg3 mi
6:30 PM91 °FHaze.5 mph46%29.71 "Hg3 mi
6:00 PM93 °FHaze.5 mph44%29.71 "Hg3 mi
5:30 PM95 °FHaze.5 mph41%29.71 "Hg3 mi
5:00 PM95 °FHaze.6 mph41%29.71 "Hg3 mi
4:30 PM95 °FHaze.5 mph41%29.74 "Hg3 mi
4:00 PM95 °FHaze.8 mph44%29.74 "Hg3 mi
3:30 PM95 °FHaze.9 mph44%29.74 "Hg3 mi
3:00 PM95 °FHaze.9 mph47%29.74 "Hg3 mi
2:30 PM95 °FHaze.9 mph44%29.77 "Hg3 mi
2:00 PM95 °FPassing clouds.9 mph47%29.77 "Hg3 mi
1:30 PM95 °FPassing clouds.9 mph47%29.80 "Hg3 mi
1:00 PM93 °FHaze.12 mph47%29.80 "Hg3 mi
12:30 PM93 °FHaze.9 mph47%29.80 "Hg3 mi
12:00 PM91 °FHaze.10 mph52%29.83 "Hg3 mi
11:30 AM90 °FHaze.10 mph49%29.86 "Hg3 mi
11:00 AM90 °FHaze.10 mph52%29.86 "Hg3 mi
10:30 AM88 °FHaze.10 mph55%29.86 "Hg2 mi
10:00 AM86 °FHaze.10 mph59%29.86 "Hg2 mi
9:30 AM84 °FHaze.12 mph62%29.86 "Hg2 mi
9:00 AM82 °FHaze.10 mph66%29.86 "Hg2 mi
8:30 AM81 °FHaze.12 mph66%29.86 "Hg2 mi
8:00 AM79 °FHaze.9 mph70%29.86 "Hg2 mi
7:30 AM79 °FHaze.12 mph65%29.86 "Hg2 mi
7:00 AM77 °FHaze.9 mph69%29.83 "Hg2 mi
6:30 AM75 °FHaze.9 mph74%29.83 "Hg2 mi
6:00 AM75 °FHaze.9 mph74%29.83 "Hg2 mi
5:30 AM75 °FHaze.7 mph74%29.80 "Hg2 mi
5:00 AM77 °FHaze.8 mph69%29.77 "Hg2 mi
4:00 AM77 °FHaze.7 mph69%29.77 "Hg2 mi
3:00 AM77 °FHaze.7 mph74%29.77 "Hg2 mi
Weather by CustomWeather, © 2015

See weather overviewHow to use our weather pages